TimeAKDT,TemperatureF,Dew PointF,Humidity,Sea Level PressureIn,VisibilityMPH,Wind Direction,Wind SpeedMPH,Gust SpeedMPH,PrecipitationIn,Events,Conditions,WindDirDegrees,DateUTC
12:53 AM,24.1,12.0,60,30.03,10.0,NW,24.2,35.7,N/A,,Clear,320,2012-10-30 08:53:00
1:53 AM,23.0,12.9,65,30.03,10.0,NW,21.9,31.1,N/A,,Clear,310,2012-10-30 09:53:00
3:53 AM,21.9,10.9,63,30.02,10.0,NW,17.3,25.3,N/A,,Clear,320,2012-10-30 11:53:00
4:53 AM,19.9,10.0,65,30.01,10.0,NW,23.0,32.2,N/A,,Clear,310,2012-10-30 12:53:00
5:53 AM,19.0,10.0,68,30.01,10.0,NW,21.9,32.2,N/A,,Clear,320,2012-10-30 13:53:00
6:53 AM,19.0,9.0,65,30.01,10.0,NNW,21.9,26.5,N/A,,Clear,330,2012-10-30 14:53:00
7:53 AM,19.0,9.0,65,29.98,10.0,NNW,25.3,39.1,N/A,,Clear,330,2012-10-30 15:53:00
8:53 AM,18.0,8.1,65,29.96,10.0,NW,25.3,39.1,N/A,,Clear,320,2012-10-30 16:53:00
9:53 AM,18.0,8.1,65,29.96,10.0,NW,28.8,40.3,N/A,,Clear,320,2012-10-30 17:53:00
10:53 AM,19.0,8.1,62,29.93,10.0,NW,24.2,35.7,N/A,,Partly Cloudy,310,2012-10-30 18:53:00
11:53 AM,21.0,8.1,57,29.95,10.0,NNW,20.7,28.8,N/A,,Partly Cloudy,330,2012-10-30 19:53:00
12:53 PM,21.9,7.0,53,29.95,10.0,NNW,11.5,25.3,N/A,,Partly Cloudy,340,2012-10-30 20:53:00
1:53 PM,24.1,8.1,51,29.94,10.0,North,15.0,25.3,N/A,,Clear,350,2012-10-30 21:53:00
2:53 PM,24.1,8.1,51,29.93,10.0,NW,9.2,19.6,N/A,,Clear,320,2012-10-30 22:53:00
3:53 PM,24.1,8.1,51,29.91,10.0,NNW,17.3,35.7,N/A,,Clear,340,2012-10-30 23:53:00
4:53 PM,23.0,8.1,53,29.91,10.0,NNW,15.0,26.5,N/A,,Clear,330,2012-10-31 00:53:00
5:53 PM,21.9,8.1,55,29.88,10.0,NW,19.6,33.4,N/A,,Clear,320,2012-10-31 01:53:00
6:53 PM,21.9,8.1,55,29.86,10.0,NNW,23.0,35.7,N/A,,Clear,330,2012-10-31 02:53:00
7:53 PM,21.0,8.1,57,29.85,10.0,NNW,18.4,31.1,N/A,,Clear,330,2012-10-31 03:53:00
8:53 PM,21.0,8.1,57,29.84,10.0,NNW,13.8,18.4,N/A,,Clear,330,2012-10-31 04:53:00
9:53 PM,19.9,8.1,60,29.81,10.0,NW,9.2,31.1,N/A,,Clear,320,2012-10-31 05:53:00
10:53 PM,19.9,8.1,60,29.80,10.0,NW,8.1,20.7,N/A,,Clear,320,2012-10-31 06:53:00
11:53 PM,19.0,8.1,62,29.78,10.0,NW,13.8,-,N/A,,Clear,320,2012-10-31 07:53:00